| time (UTC) | temp F | wind direction | speed knots | gust knots | rain 1hr in | rain 24hr in | rain mn in | humidity % | barometer mb |
| 20260504033417 | 57 | 309 | 0.0 | 1.7 | 0.00 | 0.00 | 0.00 | 64 | 1003.6 |
| 20260504032513 | 58 | 309 | 0.0 | 0.9 | 0.00 | 0.00 | 0.00 | 64 | 1003.6 |
| 20260504032045 | 58 | 309 | 0.0 | 0.9 | 0.00 | 0.00 | 0.00 | 64 | 1003.5 |
| 20260504030731 | 58 | 309 | 0.0 | 0.9 | 0.00 | 0.00 | 0.00 | 63 | 1003.5 |
| 20260504030517 | 58 | 309 | 0.0 | 1.7 | 0.00 | 0.00 | 0.00 | 63 | 1003.5 |
| 20260504030038 | 58 | 309 | 0.0 | 1.7 | 0.00 | 0.00 | 0.00 | 62 | 1003.6 |
| 20260504023113 | 59 | 309 | 0.0 | 0.9 | 0.00 | 0.00 | 0.00 | 62 | 1003.6 |
| 20260504022739 | 34 | 92 | 0.0 | 0.0 | 0.00 | 0.03 | 0.00 | 79 | 1017.4 |
| 20260504022345 | 59 | 309 | 0.0 | 1.7 | 0.00 | 0.00 | 0.00 | 60 | 1003.6 |
| 20260504022118 | 60 | 309 | 0.0 | 0.9 | 0.00 | 0.00 | 0.00 | 59 | 1003.5 |
| 20260504021858 | 60 | 309 | 0.0 | 0.9 | 0.00 | 0.00 | 0.00 | 58 | 1003.4 |
| 20260504021636 | 60 | 309 | 0.0 | 0.0 | 0.00 | 0.00 | 0.00 | 57 | 1003.4 |
| 20260504020950 | 60 | 309 | 0.0 | 0.0 | 0.00 | 0.00 | 0.00 | 57 | 1003.3 |
| 20260504020048 | 61 | 309 | 0.0 | 0.0 | 0.00 | 0.00 | 0.00 | 57 | 1003.3 |
| 20260504015350 | 61 | 309 | 0.0 | 0.9 | 0.00 | 0.00 | 0.00 | 55 | 1003.3 |
| 20260504015121 | 62 | 309 | 0.0 | 0.9 | 0.00 | 0.00 | 0.00 | 55 | 1003.2 |
| 20260504014454 | 62 | 309 | 0.0 | 0.0 | 0.00 | 0.00 | 0.00 | 54 | 1003.2 |
| 20260504014031 | 62 | 309 | 0.0 | 0.0 | 0.00 | 0.00 | 0.00 | 54 | 1003.1 |
| 20260504013605 | 63 | 309 | 0.0 | 0.0 | 0.00 | 0.00 | 0.00 | 53 | 1003.1 |
| 20260504013133 | 63 | 309 | 0.0 | 0.0 | 0.00 | 0.00 | 0.00 | 53 | 1003.2 |
| 20260504010300 | 65 | 309 | 0.9 | 3.5 | 0.00 | 0.00 | 0.00 | 51 | 1003.0 |
| 20260504005605 | 65 | 293 | 1.7 | 5.2 | 0.00 | 0.00 | 0.00 | 51 | 1003.0 |
| 20260504004452 | 67 | 323 | 1.7 | 4.3 | 0.00 | 0.00 | 0.00 | 50 | 1002.9 |
| 20260504003552 | 67 | 323 | 1.7 | 7.0 | 0.00 | 0.00 | 0.00 | 49 | 1002.9 |
| 20260504002655 | 67 | 317 | 3.5 | 8.7 | 0.00 | 0.00 | 0.00 | 47 | 1002.8 |
| 20260504002429 | 68 | 328 | 3.5 | 8.7 | 0.00 | 0.00 | 0.00 | 49 | 1003.0 |
| 20260504001541 | 68 | 246 | 4.3 | 9.6 | 0.00 | 0.00 | 0.00 | 47 | 1002.9 |
| 20260504000418 | 69 | 313 | 4.3 | 9.6 | 0.00 | 0.00 | 0.00 | 47 | 1003.0 |
| 20260503235956 | 69 | 325 | 4.3 | 9.6 | 0.00 | 0.00 | 0.00 | 47 | 1003.1 |
| 20260503235315 | 69 | 313 | 3.5 | 9.6 | 0.00 | 0.00 | 0.00 | 47 | 1003.1 |
| 20260503234841 | 69 | 277 | 3.5 | 10.4 | 0.00 | 0.00 | 0.00 | 49 | 1003.1 |
| 20260503234207 | 69 | 296 | 3.5 | 10.4 | 0.00 | 0.00 | 0.00 | 47 | 1003.1 |
| 20260503233738 | 69 | 318 | 2.6 | 7.8 | 0.00 | 0.00 | 0.00 | 46 | 1003.1 |
| 20260503231945 | 69 | 218 | 3.5 | 8.7 | 0.00 | 0.00 | 0.00 | 46 | 1003.2 |
| 20260503231303 | 69 | 313 | 3.5 | 8.7 | 0.00 | 0.00 | 0.00 | 46 | 1003.2 |
| 20260503230406 | 69 | 290 | 3.5 | 7.8 | 0.00 | 0.00 | 0.00 | 47 | 1003.4 |
| 20260503225458 | 43 | 83 | 1.7 | 3.5 | 0.01 | 0.06 | 0.00 | 80 | 1016.1 |
| 20260503225454 | 43 | 80 | 0.9 | 3.5 | 0.01 | 0.06 | 0.00 | 79 | 1016.1 |
| 20260503225434 | 69 | 264 | 2.6 | 7.8 | 0.00 | 0.00 | 0.00 | 46 | 1003.4 |
| 20260503225355 | 42 | 44 | 0.9 | 2.6 | 0.00 | 0.05 | 0.00 | 77 | 1016.3 |
| 20260503224656 | 69 | 247 | 4.3 | 13.9 | 0.00 | 0.00 | 0.00 | 46 | 1003.4 |
| 20260503224429 | 69 | 323 | 4.3 | 10.4 | 0.00 | 0.00 | 0.00 | 46 | 1003.6 |
| 20260503223938 | 69 | 306 | 3.5 | 8.7 | 0.00 | 0.00 | 0.00 | 46 | 1003.6 |
| 20260503223248 | 69 | 303 | 3.5 | 10.4 | 0.00 | 0.00 | 0.00 | 46 | 1003.7 |
| 20260503222549 | 69 | 294 | 4.3 | 10.4 | 0.00 | 0.00 | 0.00 | 46 | 1003.8 |
| 20260503222101 | 69 | 321 | 5.2 | 15.6 | 0.00 | 0.00 | 0.00 | 45 | 1003.6 |
| 20260503221622 | 69 | 290 | 6.1 | 20.0 | 0.00 | 0.00 | 0.00 | 45 | 1003.6 |
| 20260503221101 | 69 | 326 | 6.1 | 20.0 | 0.00 | 0.00 | 0.00 | 45 | 1003.6 |
| 20260503220559 | 69 | 313 | 5.2 | 13.9 | 0.00 | 0.00 | 0.00 | 47 | 1003.6 |
| 20260503220100 | 69 | 307 | 5.2 | 12.2 | 0.00 | 0.00 | 0.00 | 46 | 1003.5 |
| 20260503215835 | 69 | 306 | 5.2 | 12.2 | 0.00 | 0.00 | 0.00 | 45 | 1003.6 |
| 20260503215355 | 69 | 205 | 4.3 | 9.6 | 0.00 | 0.00 | 0.00 | 46 | 1003.6 |
| 20260503215134 | 69 | 342 | 4.3 | 12.2 | 0.00 | 0.00 | 0.00 | 47 | 1003.6 |
| 20260503214434 | 69 | 267 | 3.5 | 12.2 | 0.00 | 0.00 | 0.00 | 46 | 1003.8 |
| 20260503213959 | 69 | 292 | 4.3 | 9.6 | 0.00 | 0.00 | 0.00 | 47 | 1003.8 |
| 20260503213525 | 68 | 232 | 4.3 | 9.6 | 0.00 | 0.00 | 0.00 | 47 | 1003.8 |
| 20260503213300 | 68 | 321 | 5.2 | 12.2 | 0.00 | 0.00 | 0.00 | 47 | 1003.8 |
| 20260503211928 | 68 | 337 | 5.2 | 13.0 | 0.00 | 0.00 | 0.00 | 47 | 1004.1 |
| 20260503211235 | 68 | 303 | 5.2 | 13.0 | 0.00 | 0.00 | 0.00 | 46 | 1004.0 |
| 20260503210800 | 68 | 311 | 4.3 | 13.0 | 0.00 | 0.00 | 0.00 | 47 | 1004.0 |
| 20260503210116 | 67 | 316 | 4.3 | 12.2 | 0.00 | 0.00 | 0.00 | 46 | 1004.2 |
| 20260503205618 | 67 | 266 | 5.2 | 12.2 | 0.00 | 0.00 | 0.00 | 48 | 1004.2 |
| 20260503205348 | 67 | 309 | 4.3 | 12.2 | 0.00 | 0.00 | 0.00 | 47 | 1004.3 |
| 20260503204913 | 67 | 279 | 4.3 | 9.6 | 0.00 | 0.00 | 0.00 | 47 | 1004.4 |
| 20260503204012 | 67 | 268 | 4.3 | 8.7 | 0.00 | 0.00 | 0.00 | 49 | 1004.5 |
| 20260503203049 | 43 | 115 | 1.7 | 5.2 | 0.00 | 0.05 | 0.00 | 75 | 1015.9 |
| 20260503203034 | 43 | 117 | 1.7 | 5.2 | 0.00 | 0.05 | 0.00 | 74 | 1015.9 |
| 20260503203027 | 43 | 98 | 1.7 | 3.5 | 0.00 | 0.05 | 0.00 | 75 | 1015.7 |
| 20260503202939 | 67 | 271 | 4.3 | 9.6 | 0.00 | 0.00 | 0.00 | 46 | 1004.5 |
| 20260503202420 | 67 | 326 | 4.3 | 11.3 | 0.00 | 0.00 | 0.00 | 48 | 1004.7 |
| 20260503202335 | 45 | 95 | 1.7 | 7.0 | 0.00 | 0.05 | 0.00 | 73 | 1015.5 |
| 20260503202115 | 66 | 329 | 3.5 | 11.3 | 0.00 | 0.00 | 0.00 | 51 | 1004.9 |
| 20260503201836 | 46 | 97 | 2.6 | 7.8 | 0.00 | 0.05 | 0.00 | 74 | 1015.4 |
| 20260503201602 | 66 | 167 | 3.5 | 9.6 | 0.00 | 0.00 | 0.00 | 53 | 1005.1 |
| 20260503200904 | 65 | 169 | 3.5 | 9.6 | 0.00 | 0.00 | 0.00 | 54 | 1005.2 |
| 20260503200621 | 64 | 30 | 3.5 | 10.4 | 0.00 | 0.00 | 0.00 | 53 | 1005.4 |
| 20260503195647 | 64 | 325 | 4.3 | 13.9 | 0.00 | 0.00 | 0.00 | 53 | 1005.4 |
| 20260503195417 | 64 | 294 | 4.3 | 13.9 | 0.00 | 0.00 | 0.00 | 54 | 1005.4 |
| 20260503194729 | 64 | 194 | 5.2 | 12.2 | 0.00 | 0.00 | 0.00 | 56 | 1005.6 |
| 20260503193950 | 64 | 252 | 5.2 | 15.6 | 0.00 | 0.00 | 0.00 | 55 | 1005.8 |
| 20260503193727 | 64 | 344 | 5.2 | 15.6 | 0.00 | 0.00 | 0.00 | 52 | 1006.0 |
| 20260503193242 | 64 | 355 | 6.1 | 19.1 | 0.00 | 0.00 | 0.00 | 51 | 1005.8 |
| 20260503192808 | 65 | 277 | 4.3 | 19.1 | 0.00 | 0.00 | 0.00 | 49 | 1005.7 |
| 20260503192330 | 65 | 276 | 4.3 | 10.4 | 0.00 | 0.00 | 0.00 | 50 | 1005.9 |
| 20260503190605 | 46 | 130 | 2.6 | 7.0 | 0.00 | 0.05 | 0.00 | 70 | 1015.6 |
| 20260503190440 | 64 | 140 | 5.2 | 13.0 | 0.00 | 0.00 | 0.00 | 50 | 1006.0 |
| 20260503190212 | 63 | 232 | 4.3 | 12.2 | 0.00 | 0.00 | 0.00 | 50 | 1006.0 |
| 20260503185513 | 63 | 164 | 4.3 | 10.4 | 0.00 | 0.00 | 0.00 | 53 | 1005.9 |
| 20260503185247 | 62 | 161 | 4.3 | 10.4 | 0.00 | 0.00 | 0.00 | 50 | 1005.9 |
| 20260503184602 | 63 | 236 | 5.2 | 11.3 | 0.00 | 0.00 | 0.00 | 53 | 1005.8 |
| 20260503184118 | 62 | 226 | 5.2 | 11.3 | 0.00 | 0.00 | 0.00 | 50 | 1006.2 |
| 20260503183426 | 63 | 184 | 4.3 | 11.3 | 0.00 | 0.00 | 0.00 | 50 | 1006.0 |
| 20260503183153 | 64 | 134 | 4.3 | 11.3 | 0.00 | 0.00 | 0.00 | 48 | 1006.3 |
| 20260503182501 | 64 | 5 | 3.5 | 8.7 | 0.00 | 0.00 | 0.00 | 51 | 1006.0 |
| 20260503182003 | 49 | 312 | 2.6 | 6.1 | 0.00 | 0.05 | 0.00 | 60 | 1015.1 |
| 20260503181950 | 49 | 321 | 2.6 | 7.0 | 0.00 | 0.05 | 0.00 | 61 | 1015.0 |
| 20260503181914 | 63 | 171 | 3.5 | 11.3 | 0.00 | 0.00 | 0.00 | 51 | 1006.0 |
| 20260503181848 | 48 | 302 | 2.6 | 7.0 | 0.00 | 0.05 | 0.00 | 61 | 1015.0 |
| 20260503181609 | 63 | 327 | 4.3 | 11.3 | 0.00 | 0.00 | 0.00 | 53 | 1006.0 |
| 20260503181128 | 62 | 153 | 4.3 | 10.4 | 0.00 | 0.00 | 0.00 | 52 | 1006.3 |
| 20260503180649 | 62 | 217 | 6.1 | 13.0 | 0.00 | 0.00 | 0.00 | 52 | 1006.4 |
| 20260503175957 | 62 | 219 | 6.1 | 14.8 | 0.00 | 0.00 | 0.00 | 54 | 1006.4 |
| 20260503175507 | 62 | 233 | 4.3 | 14.8 | 0.00 | 0.00 | 0.00 | 55 | 1006.5 |
| 20260503175018 | 61 | 132 | 4.3 | 13.9 | 0.00 | 0.00 | 0.00 | 60 | 1006.6 |
| 20260503174743 | 61 | 119 | 4.3 | 13.9 | 0.00 | 0.00 | 0.00 | 59 | 1006.9 |
| 20260503174259 | 60 | 296 | 4.3 | 13.0 | 0.00 | 0.00 | 0.00 | 61 | 1006.9 |
| 20260503173609 | 60 | 183 | 5.2 | 15.6 | 0.00 | 0.00 | 0.00 | 61 | 1007.2 |
| 20260503173125 | 59 | 275 | 5.2 | 15.6 | 0.00 | 0.00 | 0.00 | 62 | 1007.5 |
| 20260503172637 | 58 | 160 | 4.3 | 11.3 | 0.00 | 0.00 | 0.00 | 63 | 1007.4 |
| 20260503172156 | 58 | 300 | 5.2 | 15.6 | 0.00 | 0.00 | 0.00 | 64 | 1007.6 |
| 20260503171159 | 48 | 318 | 3.5 | 8.7 | 0.00 | 0.05 | 0.00 | 63 | 1015.0 |
| 20260503171133 | 48 | 305 | 2.6 | 5.2 | 0.00 | 0.05 | 0.00 | 65 | 1015.0 |
| 20260503170948 | 56 | 159 | 4.3 | 12.2 | 0.00 | 0.00 | 0.00 | 66 | 1007.8 |
| 20260503170714 | 55 | 131 | 5.2 | 15.6 | 0.00 | 0.00 | 0.00 | 65 | 1008.0 |
| 20260503150644 | 55 | 321 | 6.1 | 15.6 | 0.00 | 0.00 | 0.00 | 61 | 1009.5 |
| 20260503131331 | 51 | 316 | 2.6 | 8.7 | 0.00 | 0.00 | 0.00 | 62 | 1010.4 |
| 20260503130901 | 51 | 270 | 2.6 | 8.7 | 0.00 | 0.00 | 0.00 | 62 | 1010.3 |
| 20260503110526 | 47 | 316 | 1.7 | 4.3 | 0.00 | 0.00 | 0.00 | 62 | 1010.1 |
| 20260503100255 | 47 | 298 | 1.7 | 6.1 | 0.00 | 0.00 | 0.00 | 61 | 1010.5 |
| 20260503090358 | 47 | 249 | 1.7 | 4.3 | 0.00 | 0.00 | 0.00 | 60 | 1011.0 |
| 20260503090145 | 47 | 284 | 1.7 | 4.3 | 0.00 | 0.00 | 0.00 | 60 | 1010.9 |
| 20260503081122 | 46 | 219 | 1.7 | 4.3 | 0.00 | 0.00 | 0.00 | 62 | 1011.3 |
| 20260503080639 | 46 | 319 | 1.7 | 4.3 | 0.00 | 0.00 | 0.00 | 62 | 1011.4 |
| 20260503072455 | 45 | 241 | 1.7 | 4.3 | 0.00 | 0.00 | 0.00 | 64 | 1011.4 |
| 20260503072021 | 45 | 297 | 1.7 | 4.3 | 0.00 | 0.00 | 0.00 | 65 | 1011.5 |
| 20260503071328 | 45 | 260 | 0.9 | 2.6 | 0.00 | 0.00 | 0.00 | 65 | 1011.5 |
| 20260503070155 | 44 | 264 | 0.9 | 3.5 | 0.00 | 0.00 | 0.00 | 65 | 1011.6 |
| 20260503055003 | 38 | 131 | 0.0 | 1.7 | 0.00 | 0.06 | 0.00 | 91 | 1014.1 |
| 20260503054828 | 44 | 271 | 0.9 | 2.6 | 0.00 | 0.00 | 0.00 | 66 | 1012.3 |
| 20260503054602 | 44 | 271 | 0.9 | 2.6 | 0.00 | 0.00 | 0.00 | 65 | 1012.3 |
| 20260503053623 | 44 | 286 | 0.9 | 1.7 | 0.00 | 0.00 | 0.00 | 65 | 1012.3 |
| 20260503052907 | 44 | 286 | 0.9 | 1.7 | 0.00 | 0.00 | 0.00 | 66 | 1012.4 |
| 20260503051958 | 44 | 287 | 0.9 | 2.6 | 0.00 | 0.00 | 0.00 | 65 | 1012.5 |
| 20260503051321 | 44 | 287 | 0.9 | 2.6 | 0.00 | 0.00 | 0.00 | 64 | 1012.5 |
| 20260503050146 | 44 | 287 | 0.9 | 1.7 | 0.00 | 0.00 | 0.00 | 64 | 1012.6 |
| 20260503044806 | 45 | 286 | 0.9 | 3.5 | 0.00 | 0.00 | 0.00 | 64 | 1012.7 |
| 20260503044329 | 45 | 286 | 0.0 | 3.5 | 0.00 | 0.00 | 0.00 | 64 | 1012.6 |
| 20260503044011 | 38 | 131 | 0.9 | 1.7 | 0.00 | 0.06 | 0.00 | 91 | 1014.0 |
| 20260503043749 | 45 | 286 | 0.9 | 2.6 | 0.00 | 0.00 | 0.00 | 64 | 1012.6 |
| 20260503043258 | 45 | 286 | 0.9 | 2.6 | 0.00 | 0.00 | 0.00 | 64 | 1012.6 |
| 20260503042341 | 45 | 286 | 0.0 | 2.6 | 0.00 | 0.00 | 0.00 | 63 | 1012.8 |
| 20260503041901 | 45 | 286 | 0.9 | 2.6 | 0.00 | 0.00 | 0.00 | 63 | 1012.8 |
| 20260503035958 | 46 | 286 | 0.9 | 1.7 | 0.00 | 0.00 | 0.00 | 62 | 1013.0 |
| 20260503035529 | 46 | 285 | 0.9 | 1.7 | 0.00 | 0.00 | 0.00 | 63 | 1012.9 |
| 20260503034424 | 38 | 131 | 0.0 | 0.0 | 0.00 | 0.06 | 0.00 | 90 | 1013.7 |
| 20260503034301 | 46 | 285 | 0.9 | 2.6 | 0.00 | 0.00 | 0.00 | 63 | 1013.0 |